GFSGL_sfc_dewp_057.txt.gz
Dewpoint
67 67 67 67 67 68 67 67 67 66 66 65 65 66 65 64 64 64 65 65 65 64 65 66 67 67 67 67 67 66 64 61 58 58 59 59 58 59 59 59 60 59 60
66 64 64 64 66 67 66 66 66 65 65 65 65 65 64 65 64 62 63 63 62 62 63 64 65 68 67 66 66 64 63 61 59 56 57 57 57 57 58 58 58 59 57
65 64 62 62 65 66 65 65 66 65 64 64 63 63 63 64 64 63 63 62 60 60 61 61 62 64 65 64 64 63 60 59 58 57 55 57 56 57 56 57 57 57 57
65 64 64 67 66 64 65 64 65 64 63 64 63 62 62 58 59 62 63 62 60 59 59 59 59 60 63 63 62 61 59 57 56 55 55 55 56 57 57 55 55 54 53
65 65 67 67 67 65 65 65 65 64 64 63 63 60 57 55 57 60 61 62 61 60 58 57 59 61 62 64 62 59 58 57 56 55 55 55 55 55 55 55 55 53 54
66 67 68 68 65 65 65 64 64 64 63 63 62 57 55 55 58 60 61 60 61 61 58 58 58 59 60 60 60 62 59 57 55 55 54 53 54 55 55 56 57 55 55
67 68 67 67 65 66 66 66 65 64 64 63 62 58 56 55 57 57 60 60 59 58 57 58 54 54 57 55 54 56 58 60 60 57 55 55 54 56 56 57 56 56 56
67 68 67 67 66 66 65 65 65 66 65 64 64 60 57 54 57 54 56 60 60 58 57 57 54 51 53 48 44 41 42 51 57 58 58 56 54 55 57 56 56 54 55
67 68 67 68 66 66 65 65 65 65 65 64 64 63 57 53 54 52 53 60 58 55 51 54 54 48 52 53 44 40 38 37 48 51 51 51 51 52 52 52 54 54 53
68 68 69 69 66 66 66 66 66 65 64 63 63 63 59 57 52 50 51 57 57 55 47 44 50 47 49 52 47 43 42 45 44 45 44 46 48 52 54 48 48 46 49
68 69 69 69 67 67 67 66 66 64 63 62 63 61 61 58 51 51 50 55 58 55 47 43 41 47 45 48 53 54 49 51 53 50 50 51 52 50 47 47 47 47 48
67 69 68 68 68 68 67 66 65 64 63 62 63 62 62 59 53 51 51 52 54 54 46 43 39 43 42 43 44 43 44 44 44 47 51 50 52 49 48 45 46 47 48
68 67 67 67 67 67 66 66 64 64 64 62 62 61 62 60 54 49 48 49 51 52 44 44 43 41 41 42 43 44 44 42 48 44 41 41 40 39 44 48 48 49 48
64 65 65 65 63 63 64 64 66 65 64 63 62 61 60 60 56 53 49 48 49 46 47 41 40 41 45 47 42 42 42 42 42 41 41 41 43 46 44 40 39 47 48
64 64 65 63 62 58 54 53 55 59 58 64 64 62 60 59 58 52 51 49 48 42 41 41 43 44 43 42 42 43 42 40 43 43 43 43 42 42 40 42 39 41 39
63 62 63 64 59 56 55 54 50 47 45 49 50 57 55 54 50 47 45 45 45 43 42 43 42 44 45 45 45 46 44 46 45 44 42 40 41 38 36 38 43 38 39
61 62 62 60 59 56 55 55 55 52 46 45 45 47 49 50 48 46 47 43 42 42 40 43 45 45 46 49 48 45 40 44 42 46 44 40 41 43 36 38 43 40 41
58 56 60 61 60 57 56 54 54 54 54 53 44 46 45 44 42 42 41 42 40 40 42 42 44 49 50 46 45 46 44 42 42 46 42 43 43 38 39 41 37 41 38
58 58 59 60 59 57 57 56 55 55 54 52 46 44 41 41 41 41 42 45 44 43 41 40 42 44 49 45 45 47 46 46 46 44 43 45 42 43 41 42 41 42 40
58 57 57 58 58 57 57 56 55 55 55 52 49 48 43 44 42 41 40 42 46 48 44 41 40 43 48 48 49 46 45 41 42 42 42 44 45 42 41 42 40 40 40
57 57 57 57 58 58 57 56 55 55 56 54 52 50 43 44 44 44 43 42 43 45 46 48 44 48 48 50 49 47 44 45 45 45 44 46 47 43 43 42 41 41 41
58 57 56 57 56 57 57 58 57 56 55 55 53 51 41 44 46 47 46 46 46 47 48 49 48 47 47 48 48 47 46 46 47 47 47 47 46 44 42 41 40 39 38
58 57 57 57 56 55 55 56 58 59 58 58 57 53 45 45 49 49 49 49 49 49 49 49 45 44 43 48 48 48 44 45 47 47 46 45 44 43 42 40 40 38 37
57 57 56 57 58 57 57 56 57 54 58 57 50 49 48 48 47 44 43 44 46 46 46 46 44 44 45 48 50 47 47 47 46 45 46 44 43 40 39 38 36 34 32
57 56 55 55 53 51 50 46 49 49 49 47 45 47 48 46 42 46 50 49 47 44 45 46 46 45 44 45 40 36 35 31 34 36 38 36 35 35 35 35 34 30 28
58 57 56 55 50 49 48 50 50 51 50 51 51 52 51 50 50 51 53 53 53 53 51 48 45 45 45 38 32 28 29 27 24 27 24 24 23 24 26 27 29 29 27

GFSGL_sfc_dewp_060.txt.gz
Dewpoint
66 66 66 65 64 64 66 67 66 65 64 63 65 65 64 63 62 63 63 63 62 63 64 64 66 66 66 65 66 65 63 61 58 58 59 59 58 58 59 59 60 60 60
64 64 65 65 66 66 66 65 64 64 65 65 64 64 64 63 62 62 61 60 60 61 61 62 63 66 64 64 63 61 60 60 60 56 57 57 57 58 58 58 58 58 58
63 61 62 63 65 65 64 65 65 63 63 62 62 63 63 63 62 61 59 58 59 59 59 60 61 63 62 61 61 59 59 60 59 57 55 56 56 57 56 56 56 57 57
61 60 61 63 65 64 64 64 63 63 62 62 62 61 58 58 61 62 60 58 57 58 58 59 60 62 61 60 60 58 57 58 57 56 56 56 56 56 56 55 54 54 54
62 63 65 66 64 64 64 64 63 63 62 62 61 56 56 58 60 62 61 59 58 57 57 58 60 63 64 62 59 57 56 56 56 55 55 55 55 55 55 55 54 53 52
63 65 67 67 65 64 65 64 64 63 63 60 56 55 55 57 57 60 61 60 59 58 58 56 57 59 58 61 61 59 57 55 56 56 55 55 54 55 56 55 54 55 51
66 67 67 66 65 64 65 65 63 63 63 62 58 55 54 56 56 57 60 58 56 57 57 54 53 54 53 52 58 59 59 58 57 55 53 53 53 55 55 56 57 53 56
66 67 66 65 65 65 65 64 64 64 64 63 61 58 54 55 53 54 59 58 56 56 56 52 51 50 48 45 44 46 51 55 58 58 56 56 56 57 56 55 54 54 54
66 67 66 65 65 64 64 64 64 64 64 63 62 60 54 53 52 52 58 58 54 52 54 53 49 49 52 47 36 34 34 37 49 53 53 52 52 52 53 55 52 53 52
66 67 67 66 65 64 63 63 64 64 64 63 62 61 56 54 51 50 52 58 54 49 46 48 51 49 51 47 39 43 42 42 40 41 43 47 50 50 51 47 47 48 49
68 68 67 67 66 65 64 64 64 63 63 62 62 62 59 56 51 49 50 58 56 49 44 43 43 47 47 49 46 44 45 47 49 47 48 49 49 47 45 45 46 48 47
67 68 68 67 67 66 65 64 64 63 62 61 61 61 61 58 51 50 50 53 56 49 45 42 41 43 42 46 49 47 45 47 46 49 51 49 49 49 46 44 45 46 47
67 67 66 66 67 66 65 64 63 63 62 61 61 60 61 60 57 50 49 49 53 53 45 42 42 41 41 41 42 43 43 42 43 46 46 47 48 49 46 46 46 46 46
64 64 64 63 62 63 64 65 65 65 63 62 62 61 61 60 58 55 54 51 51 48 49 44 42 40 42 44 43 40 41 42 42 41 40 40 41 43 42 42 37 45 46
62 62 63 63 62 58 55 55 57 58 56 62 63 63 61 60 59 53 52 51 46 44 38 38 38 42 43 40 38 41 40 40 40 42 41 42 40 43 40 42 38 41 37
62 63 63 63 60 58 57 55 50 48 46 45 45 54 62 54 49 48 48 48 44 41 38 38 40 42 43 40 41 42 45 43 43 43 40 40 40 36 35 37 41 37 37
59 60 62 60 59 57 56 56 55 52 46 44 44 45 47 51 46 46 46 47 44 41 40 40 39 41 43 44 43 44 43 41 44 43 40 39 41 40 36 36 39 39 40
58 56 59 59 59 58 57 56 54 55 55 55 46 44 44 43 43 45 45 46 45 43 39 38 41 44 44 45 47 47 43 41 41 44 42 41 40 38 39 39 40 38 40
57 57 57 58 59 58 57 56 55 54 54 54 50 45 42 40 41 42 42 54 50 45 41 40 41 43 46 48 47 48 46 42 41 43 43 41 42 40 39 40 40 40 41
57 56 56 56 57 57 58 57 56 54 53 54 52 51 44 44 45 44 43 47 48 46 43 42 41 42 43 45 47 46 44 42 43 43 42 43 44 43 42 41 41 39 39
57 56 56 56 56 57 57 57 56 56 55 54 53 51 44 48 49 49 48 45 46 47 48 45 44 42 43 45 48 47 44 43 43 44 42 41 43 43 42 41 42 40 40
57 56 56 56 56 56 58 58 56 55 55 55 53 52 42 47 49 48 47 49 50 46 46 46 47 47 45 46 49 46 44 43 43 44 44 43 45 46 44 42 42 41 40
57 57 56 56 56 55 55 56 57 58 57 56 57 54 46 46 48 47 47 47 47 46 47 47 48 48 48 49 49 47 43 43 44 46 46 46 45 44 42 42 41 39 38
58 57 57 57 56 56 56 56 56 54 58 58 58 57 54 51 48 48 49 50 50 50 50 50 50 49 47 46 48 47 45 45 47 47 47 45 44 42 41 39 38 36 34
58 57 56 55 54 51 49 48 49 49 49 50 56 54 51 50 48 47 47 49 51 47 47 47 47 46 45 44 46 47 42 36 44 43 45 43 41 39 37 35 34 33 32
57 57 56 52 50 51 51 51 51 51 51 51 51 50 50 51 51 52 53 53 53 53 52 51 45 45 43 42 38 32 30 29 30 29 31 32 29 27 24 24 26 25 27

GFSGL_sfc_dewp_063.txt.gz
Dewpoint
66 64 64 63 62 64 66 67 66 65 64 64 64 63 62 62 62 62 61 61 62 62 63 64 65 64 64 65 65 63 64 61 58 57 59 59 59 59 59 60 60 60 61
65 64 63 63 64 65 65 65 64 64 64 64 64 63 62 62 61 59 59 59 60 60 61 62 63 64 62 62 62 60 61 61 59 57 57 57 57 58 58 58 58 58 58
63 63 63 64 64 64 64 64 64 63 63 63 63 62 62 62 59 58 58 58 58 59 60 61 61 62 60 60 59 59 59 60 59 57 55 57 57 57 56 57 57 57 56
61 62 63 63 64 63 64 63 63 62 61 61 62 61 61 62 61 58 57 57 57 58 59 60 61 60 60 59 57 59 59 58 57 56 55 55 56 56 56 55 54 55 55
60 61 62 64 64 64 64 63 63 62 61 61 58 57 58 61 62 59 57 56 56 57 57 59 60 63 62 60 57 55 58 57 57 56 55 55 55 55 55 55 53 53 53
61 62 64 65 63 63 63 63 63 62 62 61 56 56 57 58 59 60 60 57 57 56 56 56 57 58 61 60 59 58 57 57 56 55 55 55 55 55 55 55 54 55 51
63 64 66 65 64 64 64 63 63 62 62 58 56 55 56 56 57 58 59 58 57 57 55 53 53 54 57 58 59 59 58 58 58 56 54 54 53 56 57 56 56 53 53
64 66 66 65 64 63 63 63 62 63 62 60 59 56 55 56 55 56 58 56 56 55 53 52 50 51 52 54 54 54 55 55 56 56 55 54 54 55 55 58 57 55 55
65 66 66 65 64 63 63 63 62 63 62 60 60 57 56 55 53 55 56 55 54 54 53 50 48 46 49 47 46 44 43 43 52 55 55 55 56 56 56 55 53 52 50
66 66 65 65 64 63 63 62 62 62 62 63 61 58 55 54 51 53 57 55 52 50 49 50 52 48 48 44 36 35 35 37 39 42 47 48 47 50 53 51 51 48 48
66 66 66 65 64 64 63 62 62 62 62 62 62 61 57 54 52 49 53 56 53 49 47 46 46 49 48 44 45 43 41 44 47 45 47 48 47 44 44 45 47 50 48
65 66 66 66 65 64 64 63 62 62 61 60 60 61 60 57 51 49 49 54 55 50 46 44 45 45 45 47 45 48 47 50 49 48 48 46 46 46 44 43 44 45 47
65 66 65 65 65 64 62 63 62 62 61 59 59 60 59 59 57 49 48 50 53 53 46 44 44 43 42 44 48 46 46 44 44 46 49 48 48 48 45 45 45 45 45
63 64 63 63 63 64 64 65 64 64 63 62 61 60 60 60 59 56 54 53 54 55 51 45 43 43 42 42 41 42 41 43 44 44 45 44 41 42 43 43 37 45 44
61 61 62 61 62 60 58 58 60 58 58 62 63 62 61 61 61 55 53 54 55 52 44 38 37 37 39 40 39 40 40 42 41 41 39 40 39 42 41 40 37 40 36
61 60 60 62 61 60 58 56 50 49 46 44 44 49 59 54 51 48 46 47 47 44 42 41 35 37 41 40 39 40 43 41 41 41 40 41 39 40 37 38 39 36 36
58 59 59 59 60 58 57 57 57 52 46 45 44 44 44 47 47 46 47 45 45 43 46 43 40 40 41 42 40 41 43 42 43 42 40 40 39 37 36 36 37 38 37
56 54 57 57 58 58 57 57 56 55 55 55 44 44 43 43 43 42 42 45 47 45 47 44 40 41 41 43 43 43 43 42 42 43 41 39 40 40 39 37 40 40 39
56 56 56 56 57 57 58 55 54 55 55 52 52 47 43 40 41 41 43 55 54 50 48 45 41 42 42 42 44 46 46 44 41 42 43 41 40 39 38 38 39 40 40
57 56 55 56 55 55 55 55 54 55 55 52 52 53 47 45 48 48 48 52 53 52 51 50 50 43 42 45 47 47 46 47 45 42 42 42 42 42 39 39 40 40 40
57 56 56 55 54 55 55 55 56 56 54 53 53 53 46 49 50 50 49 49 52 52 52 51 52 46 42 43 44 45 45 45 44 43 42 42 42 42 42 42 41 42 39
57 56 55 55 55 55 56 56 56 55 55 55 55 52 43 48 50 51 50 51 51 50 50 50 49 47 45 44 45 46 46 45 45 44 43 42 42 42 42 42 42 41 40
56 56 56 55 55 54 55 55 55 56 57 56 57 55 49 49 49 50 50 49 49 50 49 47 47 47 48 48 47 48 46 46 45 44 44 43 42 42 44 43 42 42 41
57 57 56 56 55 55 55 55 53 49 54 57 56 56 54 52 52 51 50 49 49 49 48 47 48 48 48 49 49 49 49 48 46 44 44 43 44 43 44 43 42 39 38
57 57 56 55 55 53 51 49 50 50 50 49 49 54 54 51 50 49 50 50 49 49 48 49 50 50 50 49 48 47 45 39 44 42 45 44 45 44 43 41 39 37 36
55 55 55 53 51 52 52 51 50 49 49 50 50 51 51 50 51 50 51 52 52 53 52 52 45 37 36 39 39 38 34 33 38 38 43 41 37 32 30 30 30 30 29

GFSGL_sfc_dewp_069.txt.gz
Dewpoint
71 71 70 68 68 70 69 69 69 70 70 68 68 66 66 67 67 67 67 67 68 69 69 68 68 69 70 70 71 69 67 63 59 59 60 60 60 61 61 61 62 62 62
70 69 67 67 68 68 68 68 69 69 68 67 66 65 65 62 63 64 64 66 66 66 67 67 67 67 68 69 68 68 66 64 60 57 58 58 59 59 60 60 60 59 60
69 67 65 66 67 68 68 68 68 68 68 67 66 65 62 61 64 64 65 65 66 65 65 66 66 67 67 67 66 64 63 62 60 58 57 58 58 59 58 59 59 60 59
68 66 65 66 67 67 68 68 67 67 67 66 66 65 64 61 61 63 63 65 65 65 65 65 65 66 66 66 66 65 65 63 62 59 57 57 57 57 58 56 55 55 55
67 66 65 66 68 67 67 67 67 67 66 67 66 66 65 63 58 61 61 63 63 64 64 63 64 63 61 63 64 64 65 62 60 58 57 57 56 55 55 54 53 53 55
67 66 66 68 68 67 67 67 67 66 66 65 65 64 64 62 59 59 61 61 61 61 62 63 63 63 61 60 61 61 63 62 60 58 57 56 56 56 56 54 54 52 50
66 66 67 68 67 67 67 67 66 66 66 65 64 62 62 64 58 59 59 63 62 61 61 62 60 59 61 61 60 59 59 59 61 62 59 59 58 58 58 56 56 57 55
66 66 67 68 67 68 67 67 67 66 66 66 65 63 62 62 56 57 59 63 62 62 61 59 62 63 61 61 61 61 61 61 61 60 62 61 60 61 60 59 59 59 58
64 65 67 68 67 67 67 68 68 67 67 66 65 64 64 64 54 55 58 61 61 61 59 58 58 62 55 56 61 61 60 60 56 56 57 57 57 57 59 57 56 56 57
64 66 68 68 68 67 68 68 68 68 67 65 66 65 61 63 53 53 56 59 60 58 59 58 52 57 50 52 61 61 61 59 58 59 59 58 58 58 57 62 59 57 55
65 65 68 69 69 69 69 69 68 67 67 67 66 66 64 62 61 51 52 60 59 60 57 55 54 50 47 46 50 59 59 58 56 58 56 56 58 59 59 59 60 58 55
68 67 68 69 69 69 70 69 68 68 68 67 67 66 65 66 55 52 52 53 59 62 59 57 55 48 46 43 44 46 46 52 54 54 52 50 49 50 51 52 56 57 56
68 68 68 69 70 68 68 68 66 67 66 66 66 66 64 66 65 51 49 51 53 58 60 55 51 46 45 44 46 47 46 46 48 48 45 44 45 44 50 51 53 55 54
68 67 69 70 69 68 67 67 67 67 66 66 66 65 65 64 66 66 60 57 52 55 58 56 52 49 48 51 51 48 45 46 46 44 45 46 49 50 46 46 45 46 44
68 68 68 68 67 67 67 66 68 66 65 66 65 65 64 64 64 59 59 59 59 57 58 54 54 52 49 49 50 53 52 52 50 50 50 49 50 49 50 49 45 44 43
66 66 65 65 64 64 63 61 52 53 49 48 47 56 63 54 46 45 45 46 47 48 55 55 54 53 54 50 53 53 57 53 53 52 51 50 49 49 48 49 45 43 41
64 64 63 63 65 64 65 65 63 55 47 45 44 43 43 47 43 43 43 42 43 46 57 57 56 55 54 52 48 52 50 47 53 50 49 47 47 47 46 45 44 42 41
64 56 64 64 62 61 60 59 58 58 57 57 47 48 44 43 42 42 42 45 50 49 56 58 55 55 55 52 50 48 47 45 47 47 45 46 47 45 43 42 42 42 41
59 59 59 59 60 59 60 58 57 58 57 57 58 49 46 43 42 41 41 57 57 54 53 55 57 56 54 52 51 50 48 47 49 47 45 44 44 43 43 41 40 41 42
59 57 57 58 57 57 57 56 56 56 56 55 56 56 57 51 55 56 55 54 55 56 56 54 54 54 53 53 51 50 49 48 46 48 47 45 45 44 42 41 41 40 41
60 59 57 58 57 57 56 56 56 56 57 57 56 56 50 56 56 56 57 57 57 57 57 57 56 55 53 53 52 52 51 51 50 51 51 52 52 45 45 43 42 42 41
62 61 60 59 58 58 56 56 56 56 57 55 54 54 46 55 55 56 56 56 56 56 56 57 56 57 57 56 55 53 52 52 52 52 52 51 51 47 46 44 43 43 41
60 60 60 59 58 56 57 56 57 58 56 52 52 53 55 56 56 56 55 55 55 55 55 55 54 54 52 53 54 54 53 53 54 54 53 51 49 47 47 47 47 45 43
57 57 58 60 62 60 59 57 52 48 50 51 51 51 52 54 52 53 54 53 53 53 53 52 52 50 49 49 50 50 50 51 51 51 53 52 53 52 49 47 48 48 45
57 58 58 59 59 58 54 52 52 51 50 50 50 51 51 52 52 53 54 54 54 54 54 52 52 50 49 48 47 46 41 32 37 40 49 51 51 51 50 50 49 50 48
57 57 57 57 55 54 53 52 51 51 50 50 50 50 50 50 50 52 52 52 52 52 52 52 52 52 50 45 41 34 32 32 37 34 42 48 51 52 52 51 50 50 49

GFSGL_sfc_dewp_072.txt.gz
Dewpoint
72 72 72 71 71 70 69 69 69 71 70 69 68 66 66 66 66 67 67 67 67 69 70 70 69 71 73 73 73 73 71 64 59 60 60 61 61 62 62 63 63 63 63
71 71 70 69 68 69 68 69 70 70 69 68 67 66 65 64 64 64 64 66 67 67 68 69 68 68 71 73 72 70 67 65 61 58 59 59 59 61 62 62 61 61 61
70 69 68 67 68 68 68 68 68 68 67 66 66 65 62 62 65 66 66 66 66 66 66 66 68 69 69 71 70 70 66 64 61 59 58 59 59 59 59 60 60 61 60
68 67 67 66 67 67 68 68 67 67 67 66 66 66 64 62 62 63 65 66 66 66 66 65 66 66 68 68 68 67 66 63 61 59 58 58 58 58 59 58 57 57 56
68 66 67 67 68 68 67 67 67 67 66 66 66 65 65 63 58 62 62 62 63 64 65 63 65 63 62 64 66 68 67 65 62 60 58 58 57 56 56 56 54 55 57
69 67 67 68 68 67 67 67 67 67 67 66 65 65 64 59 58 60 61 62 61 62 63 64 63 63 62 61 62 62 64 65 63 59 58 57 57 57 56 54 55 54 52
69 68 68 69 68 68 67 66 66 66 67 66 66 65 64 64 59 58 60 63 62 62 62 63 59 57 61 63 61 60 61 60 62 63 61 59 58 59 57 58 57 56 54
69 68 69 69 68 68 67 67 67 67 67 66 66 66 65 64 58 57 59 64 63 63 62 61 62 63 63 62 62 63 62 63 63 62 64 63 62 61 60 59 59 59 61
68 69 68 68 68 68 68 68 68 67 69 67 67 67 66 66 56 55 59 63 63 62 61 60 59 61 58 58 61 62 62 62 57 57 58 59 59 58 59 58 57 57 55
69 69 68 69 68 68 68 69 69 68 68 66 66 67 64 67 54 53 57 59 61 60 63 62 54 57 54 54 62 61 60 61 60 60 61 59 60 59 58 62 59 55 56
69 68 68 68 69 69 70 69 69 68 68 68 67 67 67 66 64 52 53 61 59 59 58 58 57 51 49 48 50 60 59 61 60 61 60 60 61 61 59 61 63 57 60
70 68 68 69 68 68 70 70 69 69 69 68 68 67 66 67 58 52 51 52 59 61 61 59 59 48 46 45 47 48 50 55 55 55 55 55 57 59 59 60 62 62 60
70 69 68 69 69 70 70 70 68 69 66 66 65 65 70 71 69 53 50 52 53 59 61 59 53 47 46 44 45 46 47 51 49 49 49 48 49 50 55 57 58 59 59
70 70 69 68 68 70 69 68 67 65 65 64 64 70 72 70 65 70 63 59 56 56 58 59 57 53 50 51 48 47 48 49 47 47 47 45 45 45 47 45 45 47 43
70 68 68 66 67 71 69 65 63 65 63 65 66 67 67 67 65 56 60 65 63 58 59 60 58 57 56 56 54 54 51 52 50 50 50 47 46 47 47 46 46 44 43
69 70 70 68 68 67 67 65 53 52 48 49 50 58 63 54 48 47 47 46 45 47 57 59 59 58 56 57 57 55 57 55 54 53 52 50 49 48 48 48 49 47 43
67 66 66 65 65 65 64 65 64 58 51 50 48 45 45 43 43 43 42 43 43 46 56 57 57 57 58 57 57 56 54 53 58 56 54 54 52 50 50 47 48 48 44
65 56 66 65 64 64 65 62 60 61 59 58 48 48 45 44 43 42 43 44 56 51 57 58 59 58 59 58 57 56 55 54 54 53 53 53 51 48 46 45 45 46 43
61 62 63 62 60 59 59 57 56 56 55 55 56 49 47 44 43 42 42 56 58 58 58 57 58 59 59 58 56 54 54 52 51 52 51 50 50 50 49 45 43 42 42
59 57 58 60 58 57 56 55 54 55 55 54 54 54 56 54 54 56 57 58 57 58 58 58 57 57 56 55 54 53 52 52 51 51 50 52 52 52 51 51 45 42 42
63 57 57 55 55 54 54 54 54 53 53 53 54 54 48 53 52 55 58 57 56 56 57 58 58 58 57 56 55 54 53 53 53 52 51 52 52 52 53 54 53 50 43
65 62 58 54 54 56 54 53 52 52 52 54 57 54 48 54 53 54 55 55 55 56 55 57 56 56 56 56 56 56 55 55 54 53 53 52 53 52 51 52 53 51 47
54 57 56 55 54 54 55 52 53 57 58 53 52 52 52 53 53 53 53 53 54 54 55 55 54 53 52 53 53 53 51 52 52 55 54 53 53 52 51 49 50 50 48
53 54 53 53 53 53 56 57 56 50 51 51 51 51 51 51 51 52 52 52 52 52 52 51 51 50 51 50 49 48 47 47 48 48 50 54 55 52 52 52 52 52 52
50 52 52 54 56 56 56 55 53 51 50 50 50 50 50 50 51 51 51 52 52 53 52 52 49 49 49 48 48 49 38 32 40 38 48 48 49 51 52 53 54 53 52
53 57 57 58 57 56 54 52 51 53 53 54 50 48 48 48 48 48 48 48 48 48 48 48 49 50 49 48 48 39 35 34 42 34 47 49 50 50 51 50 50 50 51